User: anonymous   Login
Location: Holbach
(51.5399°N, 10.6036°E)
Time: 06:04:53
(UTC+00:00)
Language:

Cosmos 2150 Rocket - Orbit

View from above orbital plane
View from above orbital plane
View from above satellite
View from above satellite

Ground track
Ground track

The orbit data is extracted from the following two-line orbital elements,

1 21419U 91041B   20339.58868554  .00000139  00000-0  58530-4 0  9996
2 21419  74.0377 143.0489 0040060 121.8374 238.6687 14.33976417541984
Epoch (UTC): 04 December 2020 14:07:42
Eccentricity: 0.0040060
inclination: 74.0377°
perigee height: 750 km
apogee height: 807 km
right ascension of ascending node: 143.0489°
argument of perigee: 121.8374°
revolutions per day: 14.33976417
mean anomaly at epoch: 238.6687°
orbit number at epoch: 54198

The dashed part of the orbit path shows where the satellite is in the earth's shadow,  

DLR